Погода Макушино

Погода Макушино : погода сейчас, прогноз погоды и архив. Всё, что Вы хотите узнать о погоде Макушино!

Поиск расширенной информации на нашем сайте:

Другие новости

Новости СМИ2

Главная страница сайта

Новости сайта

03.07.2017

Напоминаем, что на нашем специализированном сайте Метеоцентр.Азия вы можете получить высокодетализированные автоматические прогнозы погоды по пунктам России, СНГ и мира в авиационном формате (включающие направление и скорость ветра, видимость, явления погоды, количество и форму облачности, нижнюю и верхнюю границу облачности).

Рекомендуем: юрист недвижимость в Москве

Погода Макушино - сегодня

Время (UTC), дата Ветер
(°,м/с) 
Видим.   Явления Облачность Т
(°С)
Тd
(°С)
f(%) Тe
(°С)
Pmin
(гПа)
dP
(гПа)
Po
(мм)
O2
(г/м3)
Тmin Tmax R s Состояние
почвы
06 13.08.18 240 (ЮЗ) 20000 м    4/0 верхняя 
[Ci fib]
+22.6 +13.7 57 +29  1012.6  0.2  747  275           
09 13.08.18 240 (ЮЗ) 20000 м    6/4 1000 м верхняя 
[Cu hum|Ci fib]
+25.5 +14.9 52 +34  1012.2  -0.3  747  272           
12 13.08.18 220 (ЮЗ) 20000 м    8/5 1000 м кучево-дожд., верхняя 
[Cb cap|Ci sp]
+26.7 +15.5 50 +36  1011.6  -0.5  747  271           
18 13.08.18 160 (Ю) 20000 м    ясно 
+19.9 +14.3 70 +29  1012.4  0.4  747  278           
21 13.08.18 170 (Ю) 20000 м    ясно 
+18.1 +13 72 +24  1012.5  0.1  747  280           
00 14.08.18 180 (Ю) 20000 м    9/4 1000 м кучево-дожд., верхняя 
[Cb cap|Ci sp]
+17.3 +12.9 75 +23  1012.4  0.1  747  281           
03 14.08.18 190 (Ю) 20000 м    1/0 верхняя 
[Ci]
+21.4 +14.2 64 +29  1012.4  0.3  747  276  +17        сухая 
06 14.08.18 160 (Ю) 20000 м    8/5 1000 м верхняя 
[Cu med, cong|Ci]
+26.7 +16 52 +37  1011.7  -0.4  747  271           
09 14.08.18 180 (Ю) 20000 м    6/5 1000 м верхняя 
[Cu med, cong|Ci]
+29.3 +14.5 40 +37  1011.8  0.1  750  270           
12 14.08.18 230 (ЮЗ) 20000 м    3/1 1000 м верхняя 
[Cu med, cong|Ci]
+29.1 +12.3 35 +34  1009.8  -1  746  269           
18 14.08.18 160 (Ю) 4000 м  гроза, ливневой дождь  10/10 600 м кучево-дожд. 
[Cb cap]
+19.7 +14.8 73 +29  1011.4  0.9  746  277           
21 14.08.18 300 (СЗ) 20000 м  {гроза, ливн. осадки}  10/10 600 м кучево-дожд. 
[Cb cap]
+16.9 +14.7 87 +26  1009  -2.5  745  279           
00 15.08.18 080 (В) 20000 м  {гроза, ливн. осадки}  10/10 600 м кучево-дожд. 
[Cb cap]
+17.5 +14.8 84 +27  1008.1  -0.9  744  279           
03 15.08.18 140 (ЮВ) 4{11}  20000 м    8/5 1000 м кучево-дожд., верхняя 
[Cb cap|Ci fib]
+19.1 +15 77 +29  1006.5  -1.4  743  277  +16.9    0.3    влажная 
06 15.08.18 180 (Ю) 20000 м    9/9 1000 м кучево-дожд. 
[Cb cap]
+22.3 +13.1 56 +28  1006.1  -0.3  743  274           
09 15.08.18 130 (ЮВ) 20000 м  в посл. час ливневой дождь  10/10 1000 м кучево-дожд. 
[Cb cap]
+22.8 +14.5 59 +31  1005.3  -0.8  742  273           
18 15.08.18 190 (Ю) 20000 м  {ливн. осадки}  8/8 1000 м кучево-дожд. 
[Cb cap]
+15.4 +13.5 88 +22  1005.5  0.7  742  280           
21 15.08.18 160 (Ю) 20000 м    10/10 1000 м кучево-дожд. 
[Cb cap]
+15.5 +13.8 90 +24  1005.3  -0.2  742  280           
00 16.08.18 210 (ЮЗ) 20000 м    10/10 1000 м кучево-дожд. 
[Cb cap]
+15.9 +14 88 +24  1006.2  0.9  742  280           
03 16.08.18 230 (ЮЗ) 20000 м    10/10 1000 м кучево-дожд. 
[Cb cap]
+16.3 +14 86 +24  1007.5  1.3  743  280  +15.2        влажная 
06 16.08.18 250 (З) 20000 м    9/9 1000 м кучево-дожд. 
[Cb cap]
+18.8 +14.5 76 +28  1008.7  1.4  744  278           
09 16.08.18 330 (СЗ) 5{10}  20000 м    8/8 1000 м кучево-дожд. 
[Cb cap]
+19.6 +14.9 74 +29  1010.1  1.4  746  277           
12 16.08.18 330 (СЗ) 20000 м    9/9 1000 м кучево-дожд. 
[Cb cap]
+17.8 +13.8 77 +25  1011.9  1.6  747  280           
18 16.08.18 220 (ЮЗ) 20000 м  {ливн. осадки}  ясно 
+13.9 +12.2 89 +19  1013.1  0.3  747  284           
21 16.08.18 210 (ЮЗ) 0500 м  туман  ?/?  
+13 +11.8 92 +17  1012.5  -0.6  747  285           
Время (UTC), дата Ветер
(°,м/с) 
Видим.   Явления Облачность Т
(°С)
Тd
(°С)
f(%) Тe
(°С)
Pmin
(гПа)
dP
(гПа)
Po
(мм)
O2
(г/м3)
Тmin Tmax R s Состояние
почвы

Для получения пояснительной информации подведите курсор к названию столбца.

ПОГОДА Макушино - архив

Всё, что Вы хотите узнать о погоде Макушино - удобно и подробно!

Выберите нужную дату (начиная с 1 января 2015* года) и нажмите кнопку "Найти".
Будут отображены архивные сводки погоды по пункту Макушино, начиная с указанной даты.


Отображать данные в формате CSV (для использования в таблицах Excel)


Внимание! Наш архив погоды предназначен исключительно для личного некоммерческого использования в познавательных целях. Если Вам необходимы официальные справки о состоянии погоды (для производственных, юридических, коммерческих и т.п. целей), обращайтесь в органы Росгидромета.

*Примечание: данная дата относится к архиву по метеостанциям СССР (Россия, СНГ, Балтия).
Архив по метеостанциям Зарубежной Европы и Азии (кроме Китая) хранится 10 дней, по другим регионам земного шара (Китай, Африка, Америка, Австралия, Океания) - 1 день.

Макушино - район местоположения метеостанции


Название, широта, долгота, высота метеостанции:
Макушино 55.2°ш. 67.3°д. 140 м над ур. моря [Российская Федерация]

Дополнительная информация

В oтличие oт бoльшинства пoгoдных сайтoв мы публикуем пoдрoбную метеoинфoрмацию в детальнoм прoфессиoнальнoм фoрмате.

Характеристики температуры и влажнoсти вoздуха измеряются на высoте 2 м в тени вдали oт зданий и деревьев.
Скoрoсть ветра измеряется на высoте 10 м (на урoвне рoста челoвека скoрoсть ветра ниже в 1.5-2 раза). Если метеoстанция нахoдится в гoрoде или в лесу, тo скoрoсть ветра занижена на 2-4 м/с пo сравнению с oткрытым местoм. Скoрoсть ветра над акватoриями крупных рек и oзёр, а также на вершинах хoлмoв на 2-5 м/с выше, чем в oбычных услoвиях.
Атмoсфернoе давление в разных тoчках местнoсти мoжет значительнo oтличаться oт давления на метеoстанции, в зависимoсти oт услoвий рельефа (при пoдъёме на 10 м давление пoнижается примернo на 1 мм рт.ст.).